User: anonymous   Login
Location: Unspecified
(0.0000°N, 0.0000°E)
Time: 03:03:03
(UTC+00:00)
Language:

UFO 5 - Orbit

View from above orbital plane
View from above orbital plane
View from above satellite
View from above satellite

Ground track
Ground track

The orbit data is extracted from the following two-line orbital elements,

1 23589U 95027A   18012.92751424 0.00000000  00000-0  00000-0 0    09
2 23589  10.2131  26.1418 0003014 295.6459  64.3350  0.98748177    09
Epoch (UTC): 12 January 2018 22:15:37
Eccentricity: 0.0003014
inclination: 10.2131°
perigee height: 36206 km
apogee height: 36231 km
right ascension of ascending node: 26.1418°
argument of perigee: 295.6459°
revolutions per day: 0.98748177
mean anomaly at epoch: 64.3350°
orbit number at epoch: 0

The dashed part of the orbit path shows where the satellite is in the earth's shadow,  

DLR